User: anonymous   Login
Location: Unspecified
(0.0000°N, 0.0000°E)
Time: 18:46:03
(UTC+00:00)
Language:

OPTUS D3 - Orbit

View from above orbital plane
View from above orbital plane
View from above satellite
View from above satellite

Ground track
Ground track

The orbit data is extracted from the following two-line orbital elements,

1 35756U 09044B   17231.47693407 -.00000176  00000-0  00000+0 0  9991
2 35756   0.0501 312.8443 0002382 185.6918 157.1468  1.00272757 29309
Epoch (UTC): 19 August 2017 11:26:47
Eccentricity: 0.0002382
inclination: 0.0501°
perigee height: 35776 km
apogee height: 35796 km
right ascension of ascending node: 312.8443°
argument of perigee: 185.6918°
revolutions per day: 1.00272757
mean anomaly at epoch: 157.1468°
orbit number at epoch: 2930

The dashed part of the orbit path shows where the satellite is in the earth's shadow,  

DLR